Powrót do katalogu

STARLINK-5514

AktywnyŁącznośćVLEO
NORAD 57248·PAYLOAD·🇺🇸 United States

Wystrzelony Jul 7, 2023 z Vandenberg Space Force Base

Loading…

Następne Przeloty (najbliższe 24 godziny)

TLE

ŚwieżeSource: CelesTrak SupGP

Epoka: Sep 15, 2026, 02:05 UTC

1 57248C 23094AG  26258.08729167 -.00036426  00000+0 -13196-2 0  2589
2 57248  43.0025  29.9647 0002112 259.6702 308.1782 15.27589987    17

Śledź STARLINK-5514 w czasie rzeczywistym z AllMySat

Download on the App Store